Vorticity
3 5 5 4 9 7 -1 -2 7 11 0 -2 11 2 6 10 6 6 -3 -7 -5 -1 1 9 13 15 12 10 9 11 8 9 7 10 2 4 8 10 8 6 4 5 6 8 7 7 6 6 7
5 5 4 2 4 4 13 24 24 29 7 8 3 -1 4 7 7 -0 4 7 -0 1 16 10 12 14 13 6 12 8 8 9 6 8 6 3 5 6 7 8 9 7 8 6 7 6 7 7 7
4 5 7 10 15 3 16 -34 16 6 4 -1 -0 8 20 5 11 0 3 7 -4 4 7 10 14 16 11 16 11 10 7 3 1 1 0 6 7 1 5 8 10 9 7 6 7 7 7 7 5
3 6 7 1 -9 3 2 -21 12 4 0 9 4 3 7 8 5 -5 11 -4 -0 9 5 8 15 16 13 8 4 8 6 11 9 -3 7 4 1 5 4 7 10 10 9 8 8 8 7 5 6
5 6 3 -2 -0 8 -5 17 -16 20 5 3 2 15 5 1 13 5 8 1 -2 3 8 12 13 13 11 12 12 9 10 -1 3 -4 -11 13 -5 7 6 6 13 13 11 7 8 7 7 7 6
7 6 -6 5 2 6 11 -13 30 19 -13 -2 4 2 -11 8 16 15 4 -6 5 5 3 16 11 10 8 9 10 14 4 3 -1 15 14 4 7 6 8 7 11 7 3 8 7 6 7 6 4
5 4 -2 1 3 15 -6 6 39 -12 8 10 -1 3 5 -0 -5 5 -4 -4 5 5 8 16 11 7 8 7 9 8 8 11 9 -7 12 -17 47 3 7 7 11 4 3 6 8 7 5 5 5
7 7 1 2 3 11 6 23 12 1 4 2 15 -0 17 20 16 8 8 -4 8 2 17 10 15 18 12 10 7 6 6 9 7 13 18 7 51 7 -0 11 11 2 5 5 6 6 6 5 5
8 4 4 3 6 11 -20 -16 22 10 9 10 6 5 6 7 -0 2 6 -1 -10 -6 19 17 19 25 20 14 9 8 8 10 12 9 17 -19 30 10 -5 -3 2 2 6 8 8 6 5 4 4
7 2 -8 10 9 6 -1 -2 -11 23 4 -3 6 14 5 12 11 8 0 -2 5 22 13 15 8 12 18 13 11 12 13 12 8 8 -6 60 47 10 4 15 20 2 7 9 7 6 5 4 4
4 -2 4 7 7 3 8 0 -8 1 7 10 15 9 4 7 11 7 2 9 19 19 9 3 3 6 8 9 9 12 8 8 7 -3 62 36 5 -4 4 2 21 -1 8 6 6 4 5 4 4
8 11 8 4 9 12 11 2 -1 2 9 9 -6 7 9 4 -5 -4 0 12 6 15 7 7 9 6 8 9 10 7 7 5 6 -2 29 5 5 2 2 1 3 10 8 6 6 6 4 4 2
9 8 9 11 7 1 1 1 4 16 -4 13 2 -1 -4 -2 5 3 5 18 6 13 8 3 5 6 7 11 13 13 12 9 6 20 46 17 -1 5 5 4 -11 17 7 9 6 4 4 4 5
8 8 7 -2 2 3 -6 7 2 10 1 3 2 10 14 4 -10 4 -3 11 8 12 11 5 5 6 5 10 15 9 16 10 9 -1 82 3 -0 -0 0 -3 -4 11 13 10 7 6 5 4 3
12 6 -3 1 17 2 1 13 9 8 4 12 -3 8 -1 15 8 5 2 4 8 9 9 11 7 7 5 9 10 13 17 13 11 -0 13 15 -26 -2 -1 -7 -6 34 10 8 2 6 2 9 2
-2 1 7 16 8 6 4 18 8 8 5 11 12 16 11 8 5 10 -1 11 8 11 12 11 10 7 7 9 12 15 16 17 38 21 16 20 9 -23 -19 3 -3 25 10 11 15 4 6 6 -1
11 4 1 13 5 0 5 7 7 8 11 9 3 -1 10 20 -8 8 -5 12 5 8 10 8 9 7 7 10 12 22 7 25 12 12 9 17 7 13 23 -7 11 16 11 12 8 5 3 5 3
6 3 4 9 8 7 9 10 21 1 9 18 9 12 -2 18 11 11 6 9 17 4 6 7 8 7 7 11 19 24 -4 1 32 15 14 11 17 15 6 -7 23 18 3 9 -0 6 6 4 7
4 12 1 13 5 4 -5 13 8 -3 14 32 17 17 5 2 3 5 0 -0 -3 15 9 5 7 7 6 12 24 23 2 3 17 8 18 27 19 14 -31 22 15 1 -4 9 9 1 3 4 6
0 4 9 7 5 7 -1 32 3 11 6 37 5 3 -0 10 8 5 1 4 3 13 6 7 6 8 5 9 25 15 8 11 11 33 13 16 9 -1 -19 6 -7 28 18 -3 6 9 2 1 6
13 2 9 -9 6 -6 31 48 1 13 0 20 23 13 5 15 5 6 7 4 6 -1 11 6 6 8 6 8 20 17 5 0 3 7 35 -13 2 13 2 18 -5 40 13 13 3 3 5 6 6
4 7 9 12 7 20 -11 24 5 14 1 7 4 10 7 -2 11 2 1 2 8 1 9 6 7 9 7 6 14 22 10 6 11 9 22 26 3 3 4 13 7 -6 31 8 -0 11 5 3 7
11 10 13 8 15 11 22 6 32 8 6 15 4 18 10 -4 3 8 2 13 11 3 6 7 8 10 8 6 10 16 18 13 11 9 16 22 9 -5 24 -1 2 14 15 35 -1 12 0 12 9
5 15 -2 26 19 29 3 -13 37 15 16 4 1 -16 15 17 22 5 5 8 8 2 -0 7 9 11 9 5 9 13 13 14 17 13 14 6 17 12 4 21 7 1 26 10 22 14 -4 -8 2
5 -1 24 17 10 4 71 31 -41 14 41 29 3 3 4 -4 46 11 3 8 -2 3 12 13 10 11 10 5 7 10 12 10 15 12 13 20 18 20 12 2 10 10 34 4 -7 -16 8 10 5
10 13 -19 17 4 32 15 17 -9 28 55 2 19 22 20 -2 33 14 8 6 1 1 4 14 11 9 13 6 5 8 9 11 11 16 10 15 22 4 -7 -1 7 28 2 17 15 10 6 -1 5
23 7 45 -14 18 12 7 38 -2 -8 16 19 -8 12 23 33 10 10 13 8 7 5 21 22 1 6 10 9 4 6 6 8 9 9 13 14 13 20 15 16 2 14 12 15 9 7 5 3 6
2 -15 15 13 9 8 15 11 -5 39 -2 47 63 17 4 27 20 12 12 13 6 5 4 8 20 11 7 9 7 5 5 5 5 6 8 10 13 12 24 14 19 14 -2 13 22 25 12 11 5
3 -5 8 -1 4 7 6 5 19 26 1 37 2 19 25 31 16 14 11 11 3 3 6 6 9 18 10 5 7 6 5 5 5 5 5 5 8 10 8 11 14 15 16 17 6 6 17 13 10
15 3 3 -9 10 4 -1 16 -23 -15 23 26 9 19 52 16 -0 6 6 1 -3 1 7 10 7 20 24 16 9 5 5 3 4 5 5 5 4 3 3 7 8 12 12 11 14 5 13 9 20
Height
3138 3138 3138 3138 3142 3135 3132 3131 3131 3131 3131 3130 3130 3131 3130 3130 3130 3134 3129 3129 3131 3131 3130 3129 3129 3129 3130 3130 3131 3134 3135 3136 3136 3137 3138 3139 3139 3141 3141 3142 3144 3145 3147 3149 3151 3151 3153 3153 3155
3135 3136 3136 3135 3136 3132 3131 3129 3128 3128 3129 3129 3128 3128 3126 3126 3127 3128 3128 3128 3127 3128 3127 3125 3124 3125 3125 3126 3128 3130 3131 3132 3133 3134 3135 3137 3139 3139 3141 3141 3142 3144 3146 3147 3149 3150 3151 3152 3154
3132 3133 3135 3134 3130 3127 3128 3128 3131 3130 3128 3127 3126 3124 3123 3123 3126 3126 3125 3125 3126 3126 3124 3121 3120 3119 3121 3122 3123 3125 3127 3128 3129 3128 3127 3132 3135 3138 3139 3140 3141 3142 3144 3146 3147 3149 3150 3151 3153
3129 3130 3132 3128 3125 3124 3125 3127 3127 3129 3126 3125 3123 3122 3122 3121 3123 3123 3123 3122 3122 3122 3120 3117 3116 3115 3116 3118 3119 3121 3124 3125 3125 3123 3123 3122 3124 3133 3136 3137 3139 3141 3142 3144 3145 3146 3148 3150 3152
3125 3125 3126 3123 3122 3121 3123 3124 3125 3125 3124 3121 3120 3118 3119 3120 3120 3121 3121 3120 3119 3119 3118 3114 3112 3112 3112 3113 3115 3116 3117 3119 3118 3118 3119 3125 3121 3124 3133 3135 3137 3138 3140 3142 3143 3144 3148 3150 3153
3121 3121 3120 3119 3119 3119 3121 3123 3120 3121 3121 3119 3118 3115 3117 3117 3119 3118 3118 3117 3115 3114 3113 3111 3108 3108 3109 3110 3110 3111 3112 3115 3114 3114 3115 3120 3121 3120 3129 3133 3134 3136 3138 3141 3143 3144 3146 3150 3153
3115 3116 3115 3115 3115 3115 3119 3118 3116 3120 3120 3118 3117 3114 3115 3116 3117 3117 3116 3113 3112 3110 3108 3106 3105 3103 3104 3105 3106 3108 3108 3111 3111 3111 3112 3113 3116 3119 3120 3129 3133 3135 3137 3140 3142 3144 3145 3149 3154
3112 3112 3112 3109 3112 3111 3116 3115 3118 3119 3118 3118 3116 3113 3113 3114 3114 3114 3114 3112 3109 3106 3103 3102 3100 3098 3098 3099 3100 3102 3102 3104 3107 3105 3106 3111 3112 3115 3119 3127 3130 3133 3135 3137 3140 3143 3145 3148 3153
3107 3106 3106 3104 3109 3108 3111 3112 3114 3117 3115 3114 3113 3110 3110 3110 3110 3111 3111 3110 3108 3104 3100 3098 3095 3093 3093 3094 3096 3096 3097 3098 3100 3100 3098 3102 3108 3113 3116 3122 3128 3130 3133 3136 3139 3140 3142 3146 3151
3098 3096 3096 3101 3104 3104 3106 3108 3110 3114 3113 3111 3110 3108 3106 3106 3106 3107 3107 3107 3105 3101 3098 3096 3094 3092 3092 3092 3093 3093 3093 3094 3095 3095 3093 3090 3098 3107 3113 3120 3125 3127 3131 3135 3137 3140 3141 3144 3149
3091 3087 3095 3097 3100 3101 3101 3102 3105 3107 3108 3108 3106 3104 3103 3102 3102 3103 3104 3103 3101 3098 3096 3094 3092 3091 3091 3091 3091 3089 3089 3088 3088 3086 3083 3085 3093 3103 3109 3116 3120 3124 3129 3131 3134 3138 3140 3143 3148
3086 3087 3091 3092 3095 3097 3097 3099 3098 3100 3101 3104 3101 3100 3099 3098 3098 3100 3100 3099 3098 3095 3093 3092 3090 3089 3088 3088 3088 3087 3086 3087 3085 3085 3082 3086 3090 3100 3108 3114 3119 3123 3127 3130 3133 3137 3139 3141 3147
3081 3085 3087 3088 3089 3091 3093 3090 3092 3092 3096 3098 3098 3096 3095 3095 3095 3095 3096 3094 3094 3092 3090 3089 3087 3085 3084 3083 3083 3083 3081 3081 3081 3082 3078 3082 3090 3100 3107 3113 3117 3121 3125 3129 3132 3136 3137 3139 3146
3080 3081 3081 3083 3084 3085 3086 3084 3086 3086 3091 3092 3092 3091 3090 3090 3091 3091 3092 3090 3090 3089 3086 3085 3085 3083 3081 3079 3078 3077 3077 3077 3077 3078 3079 3084 3091 3099 3107 3111 3113 3119 3123 3127 3131 3134 3136 3138 3144
3075 3074 3075 3075 3078 3079 3081 3073 3076 3082 3085 3086 3086 3087 3087 3086 3086 3087 3088 3087 3086 3085 3083 3081 3081 3080 3078 3076 3074 3073 3073 3073 3074 3076 3079 3082 3089 3098 3103 3107 3111 3115 3120 3123 3127 3131 3134 3138 3142
3069 3069 3066 3069 3074 3077 3080 3062 3073 3078 3079 3079 3079 3080 3081 3083 3082 3082 3083 3083 3082 3081 3080 3078 3077 3077 3075 3073 3070 3069 3070 3070 3070 3072 3077 3082 3087 3093 3099 3104 3108 3112 3117 3120 3124 3128 3132 3136 3140
3063 3060 3060 3064 3069 3074 3075 3061 3067 3070 3072 3072 3072 3074 3074 3077 3078 3077 3078 3079 3078 3078 3078 3076 3073 3073 3072 3070 3068 3066 3067 3067 3068 3070 3075 3080 3086 3091 3095 3101 3105 3110 3114 3118 3122 3126 3131 3134 3137
3057 3056 3057 3059 3065 3068 3065 3056 3058 3058 3060 3062 3064 3067 3068 3069 3071 3072 3075 3075 3074 3074 3074 3073 3071 3069 3068 3067 3065 3064 3066 3067 3067 3068 3072 3077 3082 3087 3093 3097 3102 3107 3112 3116 3119 3124 3129 3133 3136
3054 3054 3052 3055 3060 3057 3056 3048 3049 3052 3051 3053 3055 3058 3062 3063 3066 3068 3070 3072 3072 3071 3070 3070 3069 3067 3064 3064 3062 3061 3064 3066 3066 3068 3071 3074 3079 3084 3090 3094 3097 3102 3107 3113 3118 3122 3125 3131 3131
3050 3050 3048 3049 3055 3052 3048 3041 3040 3043 3043 3044 3050 3052 3056 3058 3059 3061 3064 3067 3068 3068 3068 3067 3066 3065 3062 3059 3059 3061 3062 3064 3065 3067 3069 3074 3078 3082 3086 3091 3094 3098 3101 3107 3114 3118 3121 3125 3128
3045 3045 3046 3045 3045 3048 3045 3036 3033 3035 3036 3038 3041 3047 3050 3051 3053 3054 3058 3062 3064 3066 3065 3064 3063 3062 3060 3058 3057 3058 3059 3062 3065 3066 3067 3072 3076 3080 3084 3087 3091 3094 3099 3102 3109 3114 3117 3122 3125
3041 3042 3042 3041 3040 3041 3044 3035 3026 3030 3029 3029 3032 3040 3043 3045 3047 3049 3052 3056 3060 3062 3062 3061 3060 3059 3059 3057 3055 3056 3059 3061 3063 3065 3066 3070 3074 3078 3083 3086 3088 3092 3094 3100 3106 3111 3115 3119 3123
3037 3038 3039 3038 3036 3035 3037 3041 3004 3023 3021 3023 3027 3031 3036 3040 3041 3042 3045 3051 3055 3057 3058 3058 3058 3058 3057 3056 3056 3055 3057 3060 3063 3064 3066 3068 3073 3077 3079 3083 3085 3089 3092 3096 3101 3106 3110 3114 3118
3034 3034 3035 3034 3034 3031 3019 3030 2997 3009 3016 3019 3021 3023 3028 3031 3034 3036 3041 3045 3049 3052 3054 3054 3055 3055 3055 3055 3054 3054 3055 3057 3060 3062 3064 3067 3071 3074 3077 3079 3083 3086 3089 3092 3096 3101 3104 3109 3114
3030 3031 3032 3028 3024 3011 3011 3018 2999 3003 3010 3013 3017 3018 3020 3022 3025 3029 3033 3038 3044 3047 3050 3051 3052 3053 3053 3054 3053 3053 3053 3054 3056 3059 3062 3063 3066 3070 3074 3075 3080 3082 3086 3090 3093 3095 3099 3104 3107
3025 3027 3031 3017 3014 3008 3013 3002 3002 3001 3006 3010 3011 3012 3012 3014 3017 3022 3028 3033 3038 3042 3046 3047 3049 3050 3051 3052 3053 3053 3053 3053 3054 3056 3058 3061 3064 3067 3069 3072 3075 3078 3082 3086 3089 3093 3097 3101 3103
3020 3022 3022 3019 3012 3010 3002 2997 3001 2998 2998 3006 3006 3007 3005 3008 3013 3019 3023 3028 3034 3038 3041 3043 3046 3047 3049 3050 3052 3053 3053 3053 3054 3055 3056 3058 3060 3062 3065 3068 3072 3075 3077 3080 3083 3086 3090 3093 3097
3017 3018 3018 3016 3012 3006 2999 2997 2996 2994 3000 2998 3000 3003 3003 3005 3010 3014 3019 3025 3031 3035 3037 3039 3041 3044 3046 3048 3049 3051 3052 3052 3053 3054 3056 3057 3058 3060 3060 3063 3067 3070 3072 3075 3078 3080 3084 3085 3086
3014 3012 3014 3013 3009 3005 3000 2998 2996 2995 3001 2997 2998 2996 3000 3001 3004 3009 3017 3024 3028 3030 3034 3036 3038 3039 3041 3044 3046 3047 3049 3051 3051 3053 3054 3055 3057 3057 3058 3059 3061 3062 3065 3069 3071 3074 3076 3077 3079
3009 3008 3009 3009 3006 3003 3000 2997 2992 2996 2996 2997 2999 3001 2997 2997 3000 3007 3015 3019 3023 3027 3030 3032 3034 3035 3037 3039 3041 3043 3045 3046 3049 3050 3051 3053 3055 3056 3056 3057 3057 3059 3061 3062 3064 3066 3068 3068 3069